Hourly Data Report for January 26, 2015

All times are specified in Local Standard Time (LST). Add 1 hour to adjust for Daylight Saving Time where and when it is observed.

Metadata including Station Name, Province, Latitude, Longitude, Elevation, Climate ID, WMO ID, TC ID
GRAND ETANG
NOVA SCOTIA
Latitude: 46°33'00.000" N Longitude: 61°03'00.000" W Elevation: 12.80 m
Climate ID: 8201969 WMO ID: TC ID: WZQ
Hourly Data Report for January 26, 2015
Temp Definition
°C

Dew Point Temp Definition
°C

Rel Hum Definition
%

Wind Dir Definition
10's deg
Wind Spd Definition
km/h

Visibility Definition
km

Stn Press Definition
kPa

Hmdx Definition

Wind Chill Definition

Weather Definition

00:00 -6.4 LegendMM 80 26 55 99.90 -17 LegendNANA
01:00 -6.3 LegendMM 80 25 50 100.05 -17 LegendNANA
02:00 -7.0 LegendMM 90 24 41 100.22 -17 LegendNANA
03:00 -7.4 LegendMM 87 25 52 100.37 -18 LegendNANA
04:00 -7.8 LegendMM 77 25 52 100.51 -19 LegendNANA
05:00 -8.2 LegendMM 84 26 49 100.69 -19 LegendNANA
06:00 -8.7 LegendMM 75 26 50 100.84 -20 LegendNANA
07:00 -8.7 LegendMM 79 26 46 101.04 -20 LegendNANA
08:00 -9.2 LegendMM 84 27 42 101.23 -20 LegendNANA
09:00 -9.5 LegendMM 83 26 38 101.40 -20 LegendNANA
10:00 -8.9 LegendMM 81 26 37 101.52 -19 LegendNANA
11:00 -8.7 LegendMM 81 25 37 101.64 -19 LegendNANA
12:00 -8.7 LegendMM 80 26 37 101.74 -19 LegendNANA
13:00 -8.9 LegendMM 81 26 31 101.86 -18 LegendNANA
14:00 -9.4 LegendMM 79 27 32 101.95 -19 LegendNANA
15:00 -9.2 LegendMM 79 26 27 102.06 -18 LegendNANA
16:00 -9.5 LegendMM 78 26 26 102.15 -18 LegendNANA
17:00 -9.4 LegendMM 80 27 22 102.22 -17 LegendNANA
18:00 -9.5 LegendMM 78 26 20 102.35 -17 LegendNANA
19:00 -9.7 LegendMM 77 28 16 102.41 -17 LegendNANA
20:00 -9.7 LegendMM 75 28 13 102.55 -16 LegendNANA
21:00 -9.4 LegendMM 76 32 10 102.61 -15 LegendNANA
22:00 -9.3 LegendMM 75 33 12 102.72 -15 LegendNANA
23:00 -8.8 LegendMM 75 32 18 102.70 -16 LegendNANA

Notes on Data Quality.

Legend
  • E = Estimated
  • M = Missing
  • NA = Not Available
  • ‡ = Partner data that is not subject to review by the National Climate Archives